This is the latest recevied weather packets stored in our database for station/object KD8FRE. If no packets are shown the sender has not sent any weather packets the latest 10 day(s).
| Time | Temp. | Humidity | Pressure | Rain* | Wind** | Luminosity | Snow |
|---|---|---|---|---|---|---|---|
| 1777472093 | 8.33° C | 92% | 1012.9 hPa | 0 mm | - | 72 W/m² | - |
| 1777471788 | 8.33° C | 91% | 1013.2 hPa | 0 mm | - | 45 W/m² | - |
| 1777471484 | 8.33° C | 91% | 1013 hPa | 0 mm | - | 50 W/m² | - |
| 1777471181 | 8.33° C | 92% | 1013 hPa | 0 mm | - | 69 W/m² | - |
| 1777470878 | 8.33° C | 92% | 1013.1 hPa | 0 mm | - | 68 W/m² | - |
| 1777470575 | 8.33° C | 92% | 1013.3 hPa | 0 mm | - | 54 W/m² | - |
| 1777470271 | 8.33° C | 92% | 1013.2 hPa | 0 mm | - | 47 W/m² | - |
| 1777469967 | 8.33° C | 92% | 1013.2 hPa | 0 mm | - | 52 W/m² | - |
| 1777469663 | 8.33° C | 92% | 1013.2 hPa | 0 mm | - | 53 W/m² | - |
| 1777469359 | 8.33° C | 92% | 1013.3 hPa | 0 mm | - | 32 W/m² | - |
| 1777469055 | 8.33° C | 92% | 1013.3 hPa | 0 mm | - | 40 W/m² | - |
| 1777468750 | 8.33° C | 92% | 1013.3 hPa | 0 mm | - | 39 W/m² | - |
| 1777468446 | 7.78° C | 91% | 1013.3 hPa | 0 mm | - | 45 W/m² | - |
| 1777468142 | 7.78° C | 91% | 1013.4 hPa | 0 mm | - | 34 W/m² | - |
| 1777467839 | 7.78° C | 91% | 1013.4 hPa | 0 mm | - | 35 W/m² | - |
| 1777467534 | 7.78° C | 91% | 1013.1 hPa | 0 mm | - | 41 W/m² | - |
| 1777467229 | 7.78° C | 91% | 1013.1 hPa | 0 mm | - | 30 W/m² | - |
| 1777466926 | 7.78° C | 91% | 1013.1 hPa | 0 mm | - | 29 W/m² | - |
| 1777466624 | 7.78° C | 91% | 1013 hPa | 0 mm | - | 23 W/m² | - |
| 1777466321 | 7.78° C | 92% | 1013.4 hPa | 0 mm | - | 26 W/m² | - |
| 1777466017 | 7.78° C | 92% | 1013.4 hPa | 0 mm | - | 26 W/m² | - |
| 1777465713 | 7.78° C | 92% | 1013.7 hPa | 0 mm | - | 28 W/m² | - |
| 1777465409 | 7.78° C | 91% | 1013.6 hPa | 0 mm | - | 26 W/m² | - |
| 1777465108 | 7.78° C | 91% | 1013.7 hPa | 0 mm | - | 19 W/m² | - |
| 1777464804 | 8.33° C | 91% | 1013.7 hPa | 0 mm | - | 18 W/m² | - |
* Rain latest hour (hover to see other rain measurements)
** Current wind speed in m/s (hover to see current wind gust speed)